Meteo Giornale » Osservazioni meteo Italia » Pescara

ore: 10:50 - Osservazioni Meteo Pescara
Lat. 42° 26' N Lon. 14° 12' E Alt. 10 metri s.l.m.

coperto_pioggia Europe/Rome

13 °C

Pioggia Debole Foschia

Temp. 24 Ore

10 °C

17 °C

Sud-Ovest

13 Km/h

Dew point 12 °C

Umidità 93 %

Visibilità  3 Km

Il sole sorge alle ore 06:49

Il sole tramonta alle ore 16:45

Data e Ora Cielo e Fenomeni T °C DP °C Um. % Pres. hPa Vis. km Vento km/h
Oggi h: 10:50 coperto_pioggia Pioggia Debole Foschia 13 12 93 997 3 SO 13
Oggi h: 10:14 foschia Foschia 13 12 93 998 3 S/SO 9.3
Oggi h: 09:50 foschia Foschia 13 12 93 998 3 S/SO 9.3
Oggi h: 08:50 coperto_pioggia Pioviggine Foschia 12 12 100 999 2 SO 7.4
Oggi h: 08:13 coperto_pioggia Pioviggine Foschia 12 12 100 999 1 N 3.7
Oggi h: 07:56 foschia Foschia 12 11 93 999 1 N 1.8
Oggi h: 07:50 foschia Foschia 12 11 93 1000 3 N 3.7
Oggi h: 06:50 coperto_pioggia Pioggia Debole Foschia 11 11 100 1000 4 N 5.5
Oggi h: 06:28 coperto_pioggia Pioggia 11 11 100 1000 2 SO 7.4
Oggi h: 06:25 coperto_pioggia Pioggia Debole 11 11 100 1000 2 SO 7.4
Oggi h: 05:53 coperto_pioggia Pioggia Debole Foschia 11 11 100 1001 5 N 5.5
Oggi h: 05:50 coperto_pioggia Pioggia Debole 11 11 100 1001 5 N 5.5
Oggi h: 05:21 coperto_pioggia Pioggia Debole 11 11 100 1001 5 N 5.5
Oggi h: 04:52 coperto_pioggia Pioggia 11 10 93 1002 10 O/SO 7.4
Oggi h: 04:50 coperto_pioggia Pioggia Debole 11 10 93 1002 10 SO 7.4
Oggi h: 03:50 molto_nuvoloso Molto Nuvoloso 13 12 93 1002 10 NE 11.1
Oggi h: 02:50 molto_nuvoloso Molto Nuvoloso 11 10 93 1004 10 N 1.8
Oggi h: 02:37 coperto_pioggia Pioggia Debole 11 10 93 1004 10 N 1.8
Oggi h: 02:14 coperto_pioggia Pioggia 11 10 93 1005 8 N 1.8
Oggi h: 01:50 coperto_pioggia Pioggia Debole 11 10 93 1006 10 N 3.7
Oggi h: 00:50 coperto Coperto 11 9 87 1006 10 N 5.5
Ieri h: 23:50 molto_nuvoloso Molto Nuvoloso 11 9 87 1007 10 N 5.5
Ieri h: 22:50 nuvoloso Nuvoloso 10 9 93 1008 10 SO 7.4
Ieri h: 21:50 poco_nuvoloso Poco Nuvoloso 10 9 93 1009 10 SO 11.1
Ieri h: 20:50 sereno Sereno 11 10 93 1009 10 SO 7.4
Ieri h: 19:50 poco_nuvoloso Poco Nuvoloso 11 10 93 1010 10 S/SO 11.1
Ieri h: 18:50 sereno Sereno 12 10 87 1010 10 N 5.5
Ieri h: 17:50 sereno Sereno 13 10 81 1010 10 N 3.7
Ieri h: 16:50 poco_nuvoloso Poco Nuvoloso 15 10 72 1010 10 N 1.8
Ieri h: 15:50 poco_nuvoloso Poco Nuvoloso 16 10 67 1010 10 N 5.5
Ieri h: 14:50 poco_nuvoloso Poco Nuvoloso 16 10 67 1011 10 N/NE 7.4
Ieri h: 13:50 poco_nuvoloso Poco Nuvoloso 17 10 63 1011 10 N/NE 9.3
Ieri h: 12:50 poco_nuvoloso Poco Nuvoloso 17 10 63 1011 10 N/NE 7.4
Ieri h: 11:50 sereno Sereno 16 9 63 1012 10 N 1.8
Ieri h: 10:50 sereno Sereno 15 10 72 1013 10 N 1.8